| time (UTC) | temp C | wind direction | speed KPH | gust KPH | rain 1hr cm | rain 24hr cm | rain mn cm | humidity % | barometer mb |
| 20260507124012 | 5 | 225 | 0.0 | 0.0 | 0.00 | 0.00 | 0.00 | 77 | 1015.1 |
| 20260507123411 | 4 | 225 | 0.0 | 0.0 | 0.00 | 0.00 | 0.00 | 77 | 1015.0 |
| 20260507122811 | 3 | 270 | 0.0 | 0.0 | 0.00 | 0.00 | 0.00 | 81 | 1015.0 |
| 20260507122211 | 3 | 270 | 0.0 | 0.0 | 0.00 | 0.00 | 0.00 | 83 | 1015.0 |
| 20260507121611 | 2 | 270 | 0.0 | 0.0 | 0.00 | 0.00 | 0.00 | 86 | 1014.9 |
| 20260507121010 | 2 | 270 | 0.0 | 0.0 | 0.00 | 0.00 | 0.00 | 89 | 1014.9 |
| 20260507115210 | 1 | 270 | 0.0 | 0.0 | 0.00 | 0.00 | 0.00 | 94 | 1014.9 |
| 20260507114010 | 0 | 270 | 0.0 | 0.0 | 0.00 | 0.00 | 0.00 | 97 | 1014.7 |
| 20260507113410 | 0 | 270 | 0.0 | 0.0 | 0.00 | 0.00 | 0.00 | 98 | 1014.7 |
| 20260507112209 | 0 | 270 | 0.0 | 0.0 | 0.00 | 0.00 | 0.00 | 98 | 1014.8 |
| 20260507111609 | 0 | 270 | 0.0 | 0.0 | 0.00 | 0.00 | 0.00 | 97 | 1014.8 |
| 20260507111009 | 0 | 270 | 0.0 | 0.0 | 0.00 | 0.00 | 0.00 | 97 | 1014.7 |
| 20260507110409 | 0 | 270 | 0.0 | 0.0 | 0.00 | 0.00 | 0.00 | 98 | 1014.7 |
| 20260507105809 | 0 | 270 | 0.0 | 0.0 | 0.00 | 0.00 | 0.00 | 98 | 1014.7 |
| 20260507105208 | 0 | 270 | 0.0 | 0.0 | 0.00 | 0.00 | 0.00 | 98 | 1014.7 |
| 20260507104608 | 0 | 270 | 0.0 | 0.0 | 0.00 | 0.00 | 0.00 | 98 | 1014.7 |
| 20260507104008 | 0 | 270 | 0.0 | 0.0 | 0.00 | 0.00 | 0.00 | 99 | 1014.7 |
| 20260507103408 | 0 | 270 | 0.0 | 0.0 | 0.00 | 0.00 | 0.00 | 98 | 1014.8 |
| 20260507102808 | 0 | 270 | 0.0 | 0.0 | 0.00 | 0.00 | 0.00 | 99 | 1014.8 |
| 20260507102208 | 0 | 270 | 0.0 | 0.0 | 0.00 | 0.00 | 0.00 | 97 | 1014.7 |
| 20260507101607 | 0 | 270 | 0.0 | 0.0 | 0.00 | 0.00 | 0.00 | 97 | 1014.7 |
| 20260507101007 | 0 | 270 | 0.0 | 0.0 | 0.00 | 0.00 | 0.00 | 96 | 1014.6 |
| 20260507100407 | 0 | 270 | 0.0 | 0.0 | 0.00 | 0.00 | 0.00 | 95 | 1014.6 |
| 20260507095807 | 0 | 270 | 0.0 | 0.0 | 0.00 | 0.00 | 0.00 | 97 | 1014.7 |
| 20260507095207 | 0 | 270 | 0.0 | 0.0 | 0.00 | 0.00 | 0.00 | 97 | 1014.7 |
| 20260507094606 | 0 | 270 | 0.0 | 0.0 | 0.00 | 0.00 | 0.00 | 96 | 1014.8 |
| 20260507094006 | 0 | 270 | 0.0 | 0.0 | 0.00 | 0.00 | 0.00 | 96 | 1014.8 |
| 20260507093406 | 0 | 270 | 0.0 | 0.0 | 0.00 | 0.00 | 0.00 | 97 | 1014.7 |
| 20260507092806 | 0 | 270 | 0.0 | 0.0 | 0.00 | 0.00 | 0.00 | 95 | 1014.8 |
| 20260507092206 | 0 | 270 | 0.0 | 0.0 | 0.00 | 0.00 | 0.00 | 96 | 1014.8 |
| 20260507091606 | 0 | 270 | 0.0 | 0.0 | 0.00 | 0.00 | 0.00 | 97 | 1014.8 |
| 20260507091006 | 0 | 270 | 0.0 | 0.0 | 0.00 | 0.00 | 0.00 | 97 | 1014.8 |
| 20260507090405 | 0 | 270 | 0.0 | 1.6 | 0.00 | 0.00 | 0.00 | 97 | 1014.9 |
| 20260507085805 | 0 | 270 | 0.0 | 0.0 | 0.00 | 0.00 | 0.00 | 96 | 1014.8 |
| 20260507085205 | 0 | 270 | 0.0 | 0.0 | 0.00 | 0.00 | 0.00 | 96 | 1014.9 |
| 20260507084605 | 0 | 270 | 0.0 | 0.0 | 0.00 | 0.00 | 0.00 | 96 | 1014.8 |
| 20260507084005 | 0 | 270 | 0.0 | 0.0 | 0.00 | 0.00 | 0.00 | 96 | 1014.8 |
| 20260507083405 | 0 | 270 | 0.0 | 0.0 | 0.00 | 0.00 | 0.00 | 96 | 1014.9 |
| 20260507082804 | 0 | 270 | 0.0 | 0.0 | 0.00 | 0.00 | 0.00 | 95 | 1014.8 |
| 20260507082204 | 0 | 270 | 0.0 | 0.0 | 0.00 | 0.00 | 0.00 | 95 | 1014.8 |
| 20260507081604 | 0 | 270 | 0.0 | 0.0 | 0.00 | 0.00 | 0.00 | 95 | 1014.8 |
| 20260507081004 | 0 | 270 | 0.0 | 0.0 | 0.00 | 0.00 | 0.00 | 96 | 1014.7 |
| 20260507080404 | 0 | 270 | 0.0 | 0.0 | 0.00 | 0.00 | 0.00 | 96 | 1014.8 |
| 20260507075803 | 0 | 270 | 0.0 | 0.0 | 0.00 | 0.00 | 0.00 | 95 | 1014.7 |
| 20260507075203 | 0 | 270 | 0.0 | 0.0 | 0.00 | 0.00 | 0.00 | 95 | 1014.7 |
| 20260507074603 | 0 | 270 | 0.0 | 0.0 | 0.00 | 0.00 | 0.00 | 94 | 1014.8 |
| 20260507074003 | 0 | 270 | 0.0 | 0.0 | 0.00 | 0.00 | 0.00 | 94 | 1014.8 |
| 20260507072803 | 0 | 270 | 0.0 | 0.0 | 0.00 | 0.00 | 0.00 | 95 | 1014.8 |
| 20260507071002 | 0 | 270 | 0.0 | 0.0 | 0.00 | 0.00 | 0.00 | 94 | 1014.9 |
| 20260507065802 | 0 | 270 | 0.0 | 0.0 | 0.00 | 0.00 | 0.00 | 95 | 1015.1 |
| 20260507065202 | 0 | 270 | 0.0 | 0.0 | 0.00 | 0.00 | 0.00 | 95 | 1015.1 |
| 20260507064601 | 1 | 270 | 0.0 | 0.0 | 0.00 | 0.00 | 0.00 | 94 | 1015.1 |
| 20260507063401 | 1 | 270 | 0.0 | 0.0 | 0.00 | 0.00 | 0.00 | 94 | 1015.2 |
| 20260507062801 | 1 | 270 | 0.0 | 0.0 | 0.00 | 0.00 | 0.00 | 94 | 1015.2 |
| 20260507062201 | 1 | 270 | 0.0 | 0.0 | 0.00 | 0.00 | 0.00 | 93 | 1015.2 |
| 20260507061001 | 1 | 270 | 0.0 | 0.0 | 0.00 | 0.00 | 0.00 | 91 | 1015.2 |
| 20260507060400 | 1 | 270 | 0.0 | 0.0 | 0.00 | 0.00 | 0.00 | 91 | 1015.3 |
| 20260507055800 | 1 | 270 | 0.0 | 0.0 | 0.00 | 0.00 | 0.00 | 90 | 1015.2 |
| 20260507055200 | 1 | 270 | 0.0 | 0.0 | 0.00 | 0.00 | 0.00 | 90 | 1015.2 |
| 20260507054600 | 1 | 270 | 0.0 | 0.0 | 0.00 | 0.00 | 0.00 | 91 | 1015.2 |
| 20260507053959 | 1 | 270 | 0.0 | 0.0 | 0.00 | 0.00 | 0.00 | 90 | 1015.2 |
| 20260507053359 | 2 | 270 | 0.0 | 0.0 | 0.00 | 0.00 | 0.00 | 86 | 1015.1 |
| 20260507052759 | 2 | 270 | 0.0 | 0.0 | 0.00 | 0.00 | 0.00 | 86 | 1015.2 |
| 20260507052159 | 2 | 270 | 0.0 | 0.0 | 0.00 | 0.00 | 0.00 | 89 | 1015.2 |
| 20260507051559 | 2 | 270 | 0.0 | 0.0 | 0.00 | 0.00 | 0.00 | 86 | 1015.3 |
| 20260507050959 | 2 | 270 | 0.0 | 0.0 | 0.00 | 0.00 | 0.00 | 88 | 1015.3 |
| 20260507050358 | 2 | 270 | 0.0 | 0.0 | 0.00 | 0.00 | 0.00 | 86 | 1015.2 |
| 20260507045758 | 2 | 270 | 0.0 | 0.0 | 0.00 | 0.00 | 0.00 | 84 | 1015.2 |
| 20260507045158 | 2 | 270 | 0.0 | 0.0 | 0.00 | 0.00 | 0.00 | 82 | 1015.2 |
| 20260507043358 | 3 | 270 | 0.0 | 0.0 | 0.00 | 0.00 | 0.00 | 80 | 1015.2 |
| 20260507042758 | 3 | 270 | 0.0 | 0.0 | 0.00 | 0.00 | 0.00 | 78 | 1015.1 |
| 20260507041557 | 3 | 270 | 0.0 | 0.0 | 0.00 | 0.00 | 0.00 | 75 | 1015.1 |
| 20260507040957 | 3 | 270 | 0.0 | 0.0 | 0.00 | 0.00 | 0.00 | 71 | 1015.1 |
| 20260507040357 | 3 | 270 | 0.0 | 0.0 | 0.00 | 0.00 | 0.00 | 68 | 1015.2 |
| 20260507035757 | 4 | 270 | 0.0 | 0.0 | 0.00 | 0.00 | 0.00 | 67 | 1015.1 |
| 20260507035156 | 4 | 270 | 0.0 | 0.0 | 0.00 | 0.00 | 0.00 | 67 | 1015.1 |
| 20260507034556 | 4 | 270 | 0.0 | 0.0 | 0.00 | 0.00 | 0.00 | 68 | 1015.1 |
| 20260507033956 | 5 | 270 | 0.0 | 0.0 | 0.00 | 0.00 | 0.00 | 66 | 1015.1 |
| 20260507033356 | 4 | 270 | 0.0 | 0.0 | 0.00 | 0.00 | 0.00 | 65 | 1015.1 |
| 20260507032756 | 5 | 270 | 0.0 | 0.0 | 0.00 | 0.00 | 0.00 | 63 | 1015.2 |
| 20260507031555 | 5 | 270 | 0.0 | 0.0 | 0.00 | 0.00 | 0.00 | 62 | 1015.1 |
| 20260507030955 | 5 | 270 | 0.0 | 0.0 | 0.00 | 0.00 | 0.00 | 59 | 1015.1 |
| 20260507030355 | 6 | 270 | 0.0 | 0.0 | 0.00 | 0.00 | 0.00 | 59 | 1015.0 |
| 20260507025755 | 6 | 315 | 0.0 | 1.6 | 0.00 | 0.00 | 0.00 | 56 | 1015.0 |
| 20260507025155 | 6 | 315 | 0.0 | 1.6 | 0.00 | 0.00 | 0.00 | 56 | 1014.9 |
| 20260507024554 | 6 | 270 | 0.0 | 1.6 | 0.00 | 0.00 | 0.00 | 55 | 1015.0 |
| 20260507023954 | 6 | 270 | 1.6 | 3.2 | 0.00 | 0.00 | 0.00 | 55 | 1015.0 |
| 20260507023354 | 6 | 270 | 0.0 | 0.0 | 0.00 | 0.00 | 0.00 | 53 | 1014.9 |
| 20260507022754 | 6 | 270 | 1.6 | 4.8 | 0.00 | 0.00 | 0.00 | 53 | 1014.7 |
| 20260507022154 | 7 | 270 | 0.0 | 4.8 | 0.00 | 0.00 | 0.00 | 52 | 1014.7 |
| 20260507021554 | 7 | 315 | 1.6 | 6.4 | 0.00 | 0.00 | 0.00 | 52 | 1014.4 |
| 20260507020953 | 7 | 270 | 1.6 | 4.8 | 0.00 | 0.00 | 0.00 | 49 | 1014.4 |
| 20260507020353 | 7 | 270 | 3.2 | 9.7 | 0.00 | 0.00 | 0.00 | 50 | 1014.4 |
| 20260507015753 | 7 | 270 | 1.6 | 3.2 | 0.00 | 0.00 | 0.00 | 49 | 1014.3 |
| 20260507015153 | 7 | 270 | 4.8 | 8.0 | 0.00 | 0.00 | 0.00 | 48 | 1014.3 |
| 20260507014553 | 8 | 315 | 6.4 | 11.3 | 0.00 | 0.00 | 0.00 | 47 | 1014.2 |
| 20260507013953 | 8 | 270 | 3.2 | 8.0 | 0.00 | 0.00 | 0.00 | 48 | 1014.2 |
| 20260507013353 | 8 | 270 | 4.8 | 11.3 | 0.00 | 0.00 | 0.00 | 48 | 1014.1 |
| 20260507012152 | 8 | 270 | 4.8 | 12.9 | 0.00 | 0.00 | 0.00 | 46 | 1014.1 |
| 20260507011552 | 8 | 270 | 4.8 | 9.7 | 0.00 | 0.00 | 0.00 | 45 | 1014.1 |
| 20260507010352 | 9 | 270 | 9.7 | 17.7 | 0.00 | 0.00 | 0.00 | 44 | 1014.0 |
| 20260507005751 | 9 | 315 | 11.3 | 17.7 | 0.00 | 0.00 | 0.00 | 44 | 1014.0 |
| 20260507005152 | 9 | 270 | 16.1 | 25.7 | 0.00 | 0.00 | 0.00 | 44 | 1013.9 |
| 20260507004551 | 9 | 315 | 6.4 | 12.9 | 0.00 | 0.00 | 0.00 | 43 | 1013.9 |
| 20260507003951 | 10 | 270 | 9.7 | 17.7 | 0.00 | 0.00 | 0.00 | 43 | 1014.0 |
| 20260507002751 | 10 | 270 | 16.1 | 27.4 | 0.00 | 0.00 | 0.00 | 42 | 1013.9 |
| 20260507002151 | 10 | 270 | 8.0 | 16.1 | 0.00 | 0.00 | 0.00 | 43 | 1013.8 |
| 20260507001550 | 11 | 270 | 19.3 | 29.0 | 0.00 | 0.00 | 0.00 | 41 | 1013.8 |
| 20260507000950 | 11 | 270 | 16.1 | 40.2 | 0.00 | 0.00 | 0.00 | 40 | 1013.6 |
| 20260507000350 | 11 | 270 | 12.9 | 25.7 | 0.00 | 0.00 | 0.00 | 41 | 1013.5 |
| 20260506234550 | 11 | 270 | 16.1 | 27.4 | 0.00 | 0.00 | 0.00 | 41 | 1013.3 |
| 20260506233950 | 11 | 270 | 12.9 | 24.1 | 0.00 | 0.00 | 0.00 | 39 | 1013.2 |
| 20260506233349 | 12 | 270 | 17.7 | 29.0 | 0.00 | 0.00 | 0.00 | 42 | 1013.2 |
| 20260506232749 | 11 | 225 | 25.7 | 38.6 | 0.00 | 0.00 | 0.00 | 40 | 1013.2 |
| 20260506232149 | 12 | 270 | 9.7 | 17.7 | 0.00 | 0.00 | 0.00 | 41 | 1013.1 |
| 20260506231549 | 12 | 270 | 11.3 | 22.5 | 0.00 | 0.00 | 0.00 | 42 | 1013.2 |
| 20260506230949 | 12 | 270 | 14.5 | 24.1 | 0.00 | 0.00 | 0.00 | 42 | 1013.2 |
| 20260506230348 | 12 | 270 | 20.9 | 27.4 | 0.00 | 0.00 | 0.00 | 41 | 1013.1 |
| 20260506225748 | 13 | 270 | 32.2 | 62.8 | 0.00 | 0.00 | 0.00 | 38 | 1012.8 |
| 20260506225148 | 14 | 225 | 17.7 | 45.1 | 0.00 | 0.00 | 0.00 | 35 | 1012.6 |
| 20260506224548 | 13 | 270 | 14.5 | 27.4 | 0.00 | 0.00 | 0.00 | 38 | 1012.9 |
| 20260506223948 | 12 | 270 | 19.3 | 33.8 | 0.00 | 0.00 | 0.00 | 41 | 1012.9 |
| 20260506222147 | 13 | 270 | 17.7 | 32.2 | 0.00 | 0.00 | 0.00 | 37 | 1012.8 |
| 20260506221547 | 13 | 270 | 12.9 | 27.4 | 0.00 | 0.00 | 0.00 | 38 | 1012.7 |
| 20260506220947 | 15 | 270 | 19.3 | 35.4 | 0.00 | 0.00 | 0.00 | 36 | 1012.6 |
| 20260506220347 | 16 | 270 | 22.5 | 37.0 | 0.00 | 0.00 | 0.00 | 36 | 1012.5 |
| 20260506215747 | 15 | 315 | 4.8 | 14.5 | 0.00 | 0.00 | 0.00 | 39 | 1012.4 |
| 20260506215147 | 13 | 270 | 20.9 | 38.6 | 0.00 | 0.00 | 0.00 | 39 | 1012.6 |
| 20260506214547 | 15 | 225 | 30.6 | 66.0 | 0.00 | 0.00 | 0.00 | 34 | 1012.7 |
| 20260506213946 | 13 | 270 | 20.9 | 37.0 | 0.00 | 0.00 | 0.00 | 39 | 1012.4 |
| 20260506213346 | 16 | 270 | 25.7 | 48.3 | 0.00 | 0.00 | 0.00 | 34 | 1012.4 |
| 20260506212746 | 16 | 270 | 20.9 | 45.1 | 0.00 | 0.00 | 0.00 | 33 | 1012.5 |
| 20260506212146 | 17 | 225 | 8.0 | 17.7 | 0.00 | 0.00 | 0.00 | 37 | 1012.2 |
| 20260506211546 | 14 | 270 | 29.0 | 43.5 | 0.00 | 0.00 | 0.00 | 36 | 1012.5 |
| 20260506210945 | 15 | 225 | 12.9 | 19.3 | 0.00 | 0.00 | 0.00 | 37 | 1012.1 |
| 20260506210345 | 15 | 270 | 3.2 | 9.7 | 0.00 | 0.00 | 0.00 | 36 | 1012.3 |
| 20260506205745 | 13 | 225 | 25.7 | 49.9 | 0.00 | 0.00 | 0.00 | 40 | 1012.3 |
| 20260506205145 | 15 | 270 | 30.6 | 41.8 | 0.00 | 0.00 | 0.00 | 35 | 1012.4 |
| 20260506204545 | 15 | 225 | 17.7 | 37.0 | 0.00 | 0.00 | 0.00 | 38 | 1012.2 |
| 20260506203945 | 14 | 225 | 19.3 | 37.0 | 0.00 | 0.00 | 0.00 | 39 | 1012.5 |
| 20260506203345 | 15 | 225 | 37.0 | 61.2 | 0.00 | 0.00 | 0.00 | 36 | 1012.3 |
| 20260506202744 | 16 | 225 | 16.1 | 35.4 | 0.00 | 0.00 | 0.00 | 31 | 1012.2 |
| 20260506201544 | 15 | 225 | 33.8 | 61.2 | 0.00 | 0.00 | 0.00 | 33 | 1012.5 |
| 20260506200944 | 15 | 225 | 38.6 | 57.9 | 0.00 | 0.00 | 0.00 | 34 | 1012.6 |
| 20260506200344 | 16 | 270 | 20.9 | 38.6 | 0.00 | 0.00 | 0.00 | 31 | 1012.6 |
| 20260506194543 | 15 | 270 | 19.3 | 40.2 | 0.00 | 0.00 | 0.00 | 36 | 1012.8 |
| 20260506193943 | 15 | 225 | 19.3 | 32.2 | 0.00 | 0.00 | 0.00 | 38 | 1012.8 |
| 20260506193343 | 13 | 270 | 37.0 | 53.1 | 0.00 | 0.00 | 0.00 | 37 | 1012.9 |
| 20260506192743 | 13 | 225 | 24.1 | 40.2 | 0.00 | 0.00 | 0.00 | 39 | 1013.0 |
| 20260506192143 | 14 | 270 | 19.3 | 32.2 | 0.00 | 0.00 | 0.00 | 36 | 1012.9 |
| 20260506191543 | 15 | 225 | 20.9 | 33.8 | 0.00 | 0.00 | 0.00 | 39 | 1012.8 |
| 20260506190942 | 14 | 270 | 14.5 | 24.1 | 0.00 | 0.00 | 0.00 | 37 | 1012.9 |
| 20260506190342 | 15 | 225 | 24.1 | 38.6 | 0.00 | 0.00 | 0.00 | 37 | 1012.9 |
| 20260506185742 | 15 | 270 | 9.7 | 12.9 | 0.00 | 0.00 | 0.00 | 39 | 1012.9 |
| 20260506185142 | 13 | 270 | 17.7 | 32.2 | 0.00 | 0.00 | 0.00 | 37 | 1012.9 |
| 20260506184542 | 13 | 270 | 16.1 | 24.1 | 0.00 | 0.00 | 0.00 | 38 | 1013.1 |
| 20260506182741 | 12 | 270 | 19.3 | 33.8 | 0.00 | 0.00 | 0.00 | 39 | 1013.1 |
| 20260506182141 | 13 | 270 | 24.1 | 37.0 | 0.00 | 0.00 | 0.00 | 38 | 1013.1 |
| 20260506181541 | 13 | 270 | 24.1 | 38.6 | 0.00 | 0.00 | 0.00 | 39 | 1013.0 |
| 20260506180946 | 13 | 270 | 11.3 | 22.5 | 0.00 | 0.00 | 0.00 | 39 | 1012.9 |
| 20260506180341 | 13 | 270 | 16.1 | 20.9 | 0.00 | 0.00 | 0.00 | 42 | 1013.0 |
| 20260506175740 | 13 | 270 | 17.7 | 33.8 | 0.00 | 0.00 | 0.00 | 37 | 1013.0 |
| 20260506174540 | 12 | 225 | 24.1 | 30.6 | 0.00 | 0.00 | 0.00 | 42 | 1013.1 |
| 20260506173940 | 12 | 225 | 22.5 | 40.2 | 0.00 | 0.00 | 0.00 | 40 | 1013.1 |
| 20260506173340 | 13 | 225 | 17.7 | 33.8 | 0.00 | 0.00 | 0.00 | 40 | 1013.2 |
| 20260506172739 | 13 | 270 | 12.9 | 17.7 | 0.00 | 0.00 | 0.00 | 40 | 1013.2 |
| 20260506172140 | 13 | 270 | 19.3 | 32.2 | 0.00 | 0.00 | 0.00 | 37 | 1013.2 |
| 20260506170939 | 13 | 225 | 22.5 | 35.4 | 0.00 | 0.00 | 0.00 | 39 | 1013.2 |
| 20260506170339 | 12 | 270 | 22.5 | 35.4 | 0.00 | 0.00 | 0.00 | 38 | 1013.3 |
| 20260506165739 | 14 | 315 | 11.3 | 20.9 | 0.00 | 0.00 | 0.00 | 38 | 1013.3 |
| 20260506165139 | 14 | 270 | 6.4 | 12.9 | 0.00 | 0.00 | 0.00 | 42 | 1013.2 |
| 20260506164538 | 12 | 225 | 20.9 | 40.2 | 0.00 | 0.00 | 0.00 | 40 | 1013.3 |
| 20260506163938 | 12 | 225 | 19.3 | 32.2 | 0.00 | 0.00 | 0.00 | 42 | 1013.4 |
| 20260506163338 | 13 | 270 | 14.5 | 27.4 | 0.00 | 0.00 | 0.00 | 39 | 1013.2 |
| 20260506162138 | 12 | 270 | 12.9 | 17.7 | 0.00 | 0.00 | 0.00 | 40 | 1013.3 |
| 20260506161538 | 12 | 225 | 24.1 | 35.4 | 0.00 | 0.00 | 0.00 | 39 | 1013.1 |
| 20260506160937 | 12 | 225 | 22.5 | 27.4 | 0.00 | 0.00 | 0.00 | 39 | 1013.2 |
| 20260506155737 | 12 | 225 | 19.3 | 24.1 | 0.00 | 0.00 | 0.00 | 38 | 1013.2 |
| 20260506155137 | 12 | 225 | 22.5 | 40.2 | 0.00 | 0.00 | 0.00 | 39 | 1013.3 |
| 20260506154537 | 12 | 225 | 19.3 | 43.5 | 0.00 | 0.00 | 0.00 | 40 | 1013.2 |
| 20260506153937 | 12 | 225 | 16.1 | 27.4 | 0.00 | 0.00 | 0.00 | 37 | 1013.3 |
| 20260506152136 | 12 | 270 | 6.4 | 12.9 | 0.00 | 0.00 | 0.00 | 38 | 1013.3 |
| 20260506151536 | 11 | 270 | 17.7 | 32.2 | 0.00 | 0.00 | 0.00 | 39 | 1013.4 |
| 20260506150936 | 12 | 225 | 22.5 | 37.0 | 0.00 | 0.00 | 0.00 | 41 | 1013.5 |
| 20260506145736 | 12 | 270 | 8.0 | 11.3 | 0.00 | 0.00 | 0.00 | 39 | 1013.4 |
| 20260506144535 | 11 | 270 | 17.7 | 33.8 | 0.00 | 0.00 | 0.00 | 42 | 1013.4 |
| 20260506143935 | 11 | 270 | 19.3 | 38.6 | 0.00 | 0.00 | 0.00 | 40 | 1013.5 |
| 20260506143335 | 11 | 270 | 11.3 | 30.6 | 0.00 | 0.00 | 0.00 | 41 | 1013.5 |
| 20260506142735 | 12 | 270 | 8.0 | 14.5 | 0.00 | 0.00 | 0.00 | 40 | 1013.4 |
| 20260506142135 | 11 | 315 | 14.5 | 25.7 | 0.00 | 0.00 | 0.00 | 42 | 1013.4 |
| 20260506141534 | 11 | 225 | 14.5 | 27.4 | 0.00 | 0.00 | 0.00 | 42 | 1013.3 |
| 20260506140934 | 11 | 270 | 11.3 | 19.3 | 0.00 | 0.00 | 0.00 | 43 | 1013.3 |
| 20260506140334 | 11 | 270 | 6.4 | 9.7 | 0.00 | 0.00 | 0.00 | 41 | 1013.4 |
| 20260506135734 | 11 | 225 | 8.0 | 12.9 | 0.00 | 0.00 | 0.00 | 44 | 1013.3 |
| 20260506135134 | 11 | 225 | 6.4 | 9.7 | 0.00 | 0.00 | 0.00 | 43 | 1013.2 |
| 20260506134534 | 11 | 225 | 4.8 | 9.7 | 0.00 | 0.00 | 0.00 | 48 | 1013.2 |
| 20260506133933 | 10 | 270 | 3.2 | 6.4 | 0.00 | 0.00 | 0.00 | 45 | 1013.0 |
| 20260506133333 | 10 | 225 | 3.2 | 8.0 | 0.00 | 0.00 | 0.00 | 52 | 1012.9 |
| 20260506132733 | 10 | 270 | 4.8 | 8.0 | 0.00 | 0.00 | 0.00 | 57 | 1012.8 |
| 20260506132133 | 10 | 270 | 1.6 | 3.2 | 0.00 | 0.00 | 0.00 | 58 | 1012.8 |
| 20260506131533 | 9 | 270 | 0.0 | 1.6 | 0.00 | 0.00 | 0.00 | 59 | 1012.7 |
| 20260506130933 | 9 | 270 | 1.6 | 4.8 | 0.00 | 0.00 | 0.00 | 62 | 1012.7 |
| 20260506130333 | 8 | 270 | 1.6 | 3.2 | 0.00 | 0.03 | 0.00 | 67 | 1012.7 |
| 20260506125732 | 8 | 225 | 0.0 | 3.2 | 0.00 | 0.05 | 0.00 | 64 | 1012.8 |
| 20260506125132 | 7 | 225 | 3.2 | 3.2 | 0.00 | 0.08 | 0.00 | 71 | 1012.7 |
| 20260506124532 | 7 | 225 | 1.6 | 1.6 | 0.00 | 0.08 | 0.00 | 76 | 1012.6 |